Location: Caltech
(34.1382°N, 118.1253°W)
Time: 13:54:06
(UTC-07:00)

AO-Echo - Visible Passes

Search period start: 26 April 2018 00:00
Search period end: 06 May 2018 00:00
Orbit: 692 x 812 km, 98.4° (Epoch: 25 April)

Date Brightness Start Highest point End Pass type
(mag) Time Alt. Az. Time Alt. Az. Time Alt. Az.
26 Apr ? 01:39:39 10° NNE 01:40:29 15° NNE 01:40:29 15° NNE visible
26 Apr ? 03:19:33 10° NNW 03:20:25 13° NW 03:20:25 13° NW visible
27 Apr ? 02:37:50 10° N 02:39:30 21° NNW 02:39:30 21° NNW visible
28 Apr ? 01:57:07 10° NNE 01:58:35 20° NNE 01:58:35 20° NNE visible
29 Apr ? 01:17:17 10° NE 01:17:40 12° NE 01:17:40 12° NE visible
29 Apr ? 02:55:49 10° NNW 02:57:36 19° NNW 02:57:36 19° NNW visible
30 Apr ? 02:14:44 10° N 02:16:41 24° N 02:16:41 24° N visible
01 May ? 01:34:29 10° NNE 01:35:46 17° NE 01:35:46 17° NE visible
01 May ? 03:14:02 10° NNW 03:15:42 16° NW 03:15:42 16° NW visible
02 May ? 02:32:31 10° N 02:34:46 26° NNW 02:34:46 26° NNW visible
03 May ? 01:51:54 10° NNE 01:53:51 24° NNE 01:53:51 24° NNE visible
03 May ? 03:32:43 10° NW 03:33:47 12° NW 03:33:47 12° NW visible
04 May ? 01:12:13 10° NE 01:12:56 13° NE 01:12:56 13° NE visible
04 May ? 02:50:27 10° N 02:52:52 24° NNW 02:52:52 24° NNW visible
05 May ? 02:09:29 10° NNE 02:11:57 30° N 02:11:57 30° N visible
